Home > Weather > Rainy River > Past weeks

Flag for Canada Weather for the Past 2 Weeks in Rainy River, Ontario, Canada

Now
61 °F

Sunny.


Feels Like: 61 °F
Forecast: 37 / 59 °F
Wind: 10 mph from Northwest

Location: Baudette International Airport

Current Time: May 4, 2016 at 6:11:40 PM

Latest Report: May 4, 2016 at 4:53 PM


Visibility: 10 mi

Pressure: 30.02 "Hg

Humidity: 17%

Dew Point: 15 °F

Location of Rainy RiverLocation

Historic Weather in Rainy River — Graph

°F

Rainy River Temperature Yesterday

Maximum temperature yesterday: 62 °F (at 3:53 PM)
Minimum temperature yesterday: 45 °F (at 11:53 PM)
Average temperature yesterday: 55 °F

High & Low Weather Summary for the Past Weeks

 TemperatureHumidityPressure
High68 °F (May 2, 3:53 PM)96% (Apr 21, 9:53 AM)30.36 "Hg (Apr 21, 9:53 AM)
Low26 °F (Apr 22, 5:53 AM)21% (May 2, 2:53 PM)29.76 "Hg (May 3, 6:53 AM)
Average47 °F55%30.09 "Hg
* Reported Apr 19 12:53 PM — May 4 12:53 PM, Rainy River, Weather by CustomWeather, © 2016

Note: Actual official high and low records may vary slightly from our data, if they occured in-between our weather recording intervals... More about our weather records

Advertising

Rainy River Weather History for the Previous 24 Hours

Scroll right to see more
 ConditionsComfort  
Time TempWeatherWind HumidityBarometerVisibility
12:53 PM
Wed, May 4
55 °FSunny.10 mph28%30.08 "Hg10 mi
11:53 AM52 °FSunny.12 mph35%30.09 "Hg10 mi
10:53 AM52 °FSunny.12 mph37%30.09 "Hg10 mi
9:53 AM50 °FSunny.12 mph39%30.09 "Hg10 mi
8:53 AM48 °FSunny.9 mph50%30.09 "Hg10 mi
7:53 AM44 °FSunny.8 mph63%30.08 "Hg10 mi
6:53 AM41 °FSunny.8 mph76%30.06 "Hg10 mi
5:53 AM39 °FClear.6 mph82%30.04 "Hg10 mi
4:53 AM39 °FClear.5 mph79%30.03 "Hg10 mi
3:53 AM40 °FClear.6 mph80%30.02 "Hg10 mi
2:53 AM42 °FClear.8 mph73%30.01 "Hg10 mi
1:53 AM42 °FClear.8 mph73%30.00 "Hg10 mi
12:53 AM44 °FPassing clouds.7 mph65%29.98 "Hg10 mi
11:53 PM
Tue, May 3
45 °FClear.7 mph60%29.98 "Hg10 mi
10:53 PM46 °FClear.7 mph61%29.97 "Hg10 mi
9:53 PM48 °FClear.6 mph52%29.96 "Hg10 mi
8:53 PM51 °FSunny.7 mph44%29.94 "Hg10 mi
7:53 PM56 °FSunny.12 mph39%29.92 "Hg10 mi
6:53 PM58 °FSunny.17 mph38%29.90 "Hg10 mi
Weather by CustomWeather, © 2016

See weather overviewHow to use our weather pages